Flag for Spain

Past Weather in Santander, Spain — Yesterday and Last 2 Weeks

Now
68 °F

Light rain. Clear.


Feels Like: 68 °F
Forecast: 72 / 62 °F
Wind: 12 mph from Southwest

Location: Santander / Parayas
Current Time: Sep 19, 2020 at 2:42:05 am
Latest Report: Sep 19, 2020 at 2:00 am
Visibility: 4 mi
Pressure29.80 "Hg
Humidity: 69%
Dew Point: 57 °F
Location of SantanderLocation

Past Weather in Santander — Graph

°F

Santander Temperature Yesterday

Maximum temperature yesterday: 84 °F (at 4:00 pm)
Minimum temperature yesterday: 66 °F (at 8:00 am)
Average temperature yesterday: 73 °F

High & Low Weather Summary for the Past Weeks

 TemperatureHumidityPressure
High86 °F (Sep 14, 6:00 am)100% (Sep 4, 4:00 am)30.33 "Hg (Sep 4, 4:00 am)
Low55 °F (Sep 8, 5:00 am)29% (Sep 14, 6:00 am)29.71 "Hg (Sep 18, 4:30 am)
Average69 °F80%30.10 "Hg
* Reported Sep 4 1:00 am — Sep 19 1:30 am, Santander. Weather by CustomWeather, © 2020

Note: Actual official high and low records may vary slightly from our data, if they occured in-between our weather recording intervals... More about our weather records

Santander Weather History for the Previous 24 Hours

Scroll right to see more
 ConditionsComfort  
Time TempWeatherWind HumidityBarometerVisibility
1:30 am
Sat, Sep 19
68 °FClear.9 mph73%29.83 "Hg6 mi
1:00 am66 °FLight rain. Clear.8 mph78%29.83 "Hg4 mi
12:30 am70 °FLight rain. Clear.13 mph69%29.83 "HgN/A
12:00 am70 °FLight rain. Clear.6 mph69%29.83 "Hg6 mi
11:30 pm
Fri, Sep 18
70 °FLight rain. Passing clouds.10 mph69%29.83 "Hg6 mi
11:00 pm73 °FPassing clouds.8 mph57%29.83 "HgN/A
10:30 pm70 °FPassing clouds.6 mph83%29.83 "HgN/A
10:00 pm68 °FPassing clouds.6 mph83%29.83 "HgN/A
9:30 pm68 °FPassing clouds.3 mph78%29.80 "HgN/A
9:00 pm68 °FPassing clouds.No wind78%29.80 "HgN/A
8:30 pm70 °FPassing clouds.1 mph78%29.80 "HgN/A
8:00 pm73 °FPassing clouds.5 mph65%29.80 "HgN/A
7:30 pm75 °FPassing clouds.1 mph61%29.80 "HgN/A
7:00 pm72 °FPassing clouds.6 mph73%29.80 "HgN/A
6:30 pm75 °FPassing clouds.9 mph61%29.80 "HgN/A
5:30 pm81 °FScattered clouds.6 mph45%29.80 "HgN/A
5:00 pm81 °FScattered clouds.7 mph45%29.80 "HgN/A
4:30 pm84 °FScattered clouds.9 mph37%29.80 "HgN/A
4:00 pm84 °FPartly sunny.9 mph35%29.80 "HgN/A
3:30 pm82 °FPartly sunny.12 mph40%29.80 "HgN/A
3:00 pm81 °FPartly sunny.8 mph45%29.80 "HgN/A
2:30 pm77 °FPartly sunny.10 mph47%29.80 "HgN/A
2:00 pm77 °FPartly sunny.9 mph47%29.83 "HgN/A
1:30 pm77 °FPartly sunny.10 mph47%29.83 "HgN/A
1:00 pm77 °FPartly sunny.8 mph47%29.83 "HgN/A
12:30 pm75 °FPartly sunny.7 mph54%29.83 "HgN/A
12:00 pm75 °FBroken clouds.6 mph57%29.83 "HgN/A
11:30 am75 °FBroken clouds.15 mph57%29.80 "HgN/A
11:00 am73 °FBroken clouds.10 mph61%29.80 "HgN/A
10:30 am72 °FBroken clouds.7 mph69%29.80 "HgN/A
10:00 am68 °FMore clouds than sun.2 mph88%29.80 "Hg6 mi
9:30 am70 °FRain. More clouds than sun.10 mph73%29.80 "Hg6 mi
9:00 am68 °FLight rain. More clouds than sun.3 mph94%29.80 "Hg6 mi
8:30 am66 °FLight rain. Overcast.No wind100%29.77 "Hg6 mi
8:00 am66 °FOvercast.No wind100%29.80 "Hg4 mi
7:30 am68 °FLight rain. Overcast.5 mph94%29.80 "Hg4 mi
7:00 am68 °FPassing clouds.3 mph94%29.80 "HgN/A
6:30 am68 °FPassing clouds.5 mph94%29.80 "HgN/A
6:00 am68 °FPassing clouds.6 mph88%29.80 "HgN/A
5:30 am68 °FPassing clouds.7 mph94%29.77 "HgN/A
5:00 am68 °FClear.7 mph88%29.77 "HgN/A
4:30 am72 °FLight rain. Clear.9 mph69%29.71 "Hg5 mi
4:00 am75 °FClear.15 mph57%29.77 "Hg6 mi
3:30 am75 °FClear.18 mph57%29.77 "Hg5 mi
3:00 am81 °FClear.21 mph45%29.80 "Hg4 mi
2:30 am81 °FClear.7 mph48%29.77 "Hg4 mi
2:00 am72 °FClear.2 mph73%29.77 "Hg5 mi
Weather by CustomWeather, © 2020

See weather overview